User: anonymous   Login
Location: Hartman Creek State Park
(44.3257°N, 89.2134°W)
Time: 14:27:09
(UTC-06:00)
Language:

Terra - Orbit

View from above orbital plane
View from above orbital plane
View from above satellite
View from above satellite

Ground track
Ground track

The orbit data is extracted from the following two-line orbital elements,

1 25994U 99068A   14325.62977582  .00000884  00000-0  20622-3 0  8435
2 25994 098.2125 038.1079 0001069 076.8387 283.3432 14.57093906793997
Epoch (UTC): 21 November 2014 15:06:52
Eccentricity: 0.0001069
inclination: 98.2125°
perigee height: 702 km
apogee height: 703 km
right ascension of ascending node: 38.1079°
argument of perigee: 76.8387°
revolutions per day: 14.57093906
mean anomaly at epoch: 283.3432°
orbit number at epoch: 79399

The dashed part of the orbit path shows where the satellite is in the earth's shadow,  

DLR